Date String (YYYY-MM-DD hh:mm:ss) UTC,Instrument flags,absolute air pressure of the measurement (hPa),sample flow rate (lpm),inlet stack bypass flow (lpm),air temperature of the measurement (°C),ambient temperature measured by the external sensor (°C),aerosol sample conditioner tube jacket temperature (°C),OPC LED temperature (°C),internal box temperature (°C),relative humidity of the measurement (%),span deviation,mass concentration of particles derived from Lorenz-Mie calculation of OPC scattering (μg/m³),mass concentration of particles derived from Lorenz-Mie calculation of OPC scattering (μg/m³),mass concentration of particles derived from Lorenz-Mie calculation of OPC scattering (μg/m³)
DateTimeUTC,F1_M11,P_M11,Q1_M11,Q2_M11,T1_M11,T2_M11,T3_M11,T4_M11,T5_M11,U1_M11,ZSPAN_M11,X2_M11,X0_M11,X1_M11
2023-11-29 21:00:00,SystemResetWarning,0822.0,5.00,000.00,024.7,024.0,000.0,032.8,026.2,7.7,0000.0,0002.14,0005.71,0001.63
2023-11-29 21:01:00,SystemResetWarning,0822.0,5.00,000.00,024.8,024.0,000.0,032.8,026.2,7.9,0000.0,0002.11,0006.18,0001.61
2023-11-29 21:02:00,SystemResetWarning,0822.0,5.00,000.00,024.8,024.0,000.0,032.8,026.2,8.3,0000.0,0002.14,0006.26,0001.65
2023-11-29 21:03:00,SystemResetWarning,0822.0,5.00,000.00,024.8,024.0,000.0,032.9,026.3,8.4,0000.0,0002.24,0006.53,0001.69
2023-11-29 21:04:00,SystemResetWarning,0822.0,5.00,000.00,024.8,024.1,000.0,032.9,026.3,8.1,0000.0,0002.33,0006.79,0001.76
2023-11-29 21:05:00,SystemResetWarning,0822.0,5.00,000.00,024.9,024.1,000.0,032.9,026.3,8.0,0000.0,0002.39,0007.02,0001.80
2023-11-29 21:06:00,SystemResetWarning,0822.1,5.00,000.00,024.9,024.1,000.0,032.9,026.3,7.6,0000.0,0002.42,0006.88,0001.82
2023-11-29 21:07:00,SystemResetWarning,0822.1,5.00,000.00,024.9,024.1,000.0,032.9,026.3,7.2,0000.0,0002.49,0006.99,0001.86
2023-11-29 21:08:00,SystemResetWarning,0822.0,5.00,000.00,024.9,024.2,000.0,033.0,026.3,7.2,0000.0,0002.63,0007.25,0001.96
2023-11-29 21:09:00,SystemResetWarning,0822.1,5.00,000.00,024.9,024.2,000.0,033.0,026.3,7.2,0000.0,0002.68,0006.70,0002.03
2023-11-29 21:10:00,SystemResetWarning,0822.1,5.00,000.00,024.9,024.2,000.0,033.0,026.4,7.7,0000.0,0002.69,0006.72,0002.05
2023-11-29 21:11:00,SystemResetWarning,0822.1,5.00,000.00,025.0,024.2,000.0,033.0,026.4,7.4,0000.0,0002.74,0006.77,0002.09
2023-11-29 21:12:00,SystemResetWarning,0822.1,5.00,000.00,025.0,024.2,000.0,033.0,026.4,7.4,0000.0,0002.82,0006.48,0002.16
2023-11-29 21:13:00,SystemResetWarning,0822.0,5.01,000.00,025.0,024.2,000.0,033.0,026.4,7.4,0000.0,0002.80,0006.32,0002.14
2023-11-29 21:14:00,SystemResetWarning,0822.0,5.00,000.00,025.0,024.2,000.0,033.1,026.4,7.2,0000.0,0002.78,0006.22,0002.13
2023-11-29 21:15:00,SystemResetWarning,0822.1,5.00,000.00,025.0,024.1,000.0,033.1,026.4,7.2,0000.0,0002.69,0005.94,0002.09
2023-11-29 21:16:00,SystemResetWarning,0822.0,4.99,000.00,025.0,024.1,000.0,033.1,026.4,7.3,0000.0,0002.67,0005.53,0002.07
2023-11-29 21:17:00,SystemResetWarning,0821.9,5.00,000.00,025.0,024.1,000.0,033.1,026.4,7.1,0000.0,0002.65,0005.03,0002.08
2023-11-29 21:18:00,SystemResetWarning,0821.9,5.00,000.00,025.0,024.1,000.0,033.1,026.4,7.0,0000.0,0002.63,0004.96,0002.08
2023-11-29 21:19:00,SystemResetWarning,0822.0,5.00,000.00,025.0,024.1,000.0,033.1,026.4,7.2,0000.0,0002.57,0004.62,0002.08
2023-11-29 21:20:00,SystemResetWarning,0821.9,5.00,000.00,025.0,024.1,000.0,033.1,026.3,7.1,0000.0,0002.53,0004.08,0002.08
2023-11-29 21:21:00,SystemResetWarning,0821.9,5.00,000.00,025.0,024.1,000.0,033.1,026.4,6.9,0000.0,0002.52,0004.91,0002.11
2023-11-29 21:22:00,SystemResetWarning,0821.9,5.00,000.00,025.0,024.1,000.0,033.1,026.4,7.2,0000.0,0002.55,0005.83,0002.15
2023-11-29 21:23:00,SystemResetWarning,0821.8,5.00,000.00,025.0,024.1,000.0,033.2,026.4,7.1,0000.0,0002.59,0005.78,0002.20
2023-11-29 21:24:00,SystemResetWarning,0821.9,5.00,000.00,025.1,024.2,000.0,033.2,026.5,6.9,0000.0,0002.63,0005.80,0002.25
2023-11-29 21:25:00,SystemResetWarning,0821.9,5.00,000.00,025.1,024.2,000.0,033.2,026.5,6.9,0000.0,0002.67,0005.88,0002.29
2023-11-29 21:26:00,SystemResetWarning,0822.0,5.00,000.00,025.1,024.2,000.0,033.2,026.5,6.9,0000.0,0002.78,0006.27,0002.34
2023-11-29 21:27:00,SystemResetWarning,0821.9,5.01,000.00,025.1,024.2,000.0,033.2,026.5,7.0,0000.0,0002.78,0006.25,0002.35
2023-11-29 21:28:00,SystemResetWarning,0821.8,5.00,000.00,025.1,024.3,000.0,033.2,026.6,6.8,0000.0,0002.75,0006.09,0002.35
2023-11-29 21:29:00,SystemResetWarning,0821.9,5.00,000.00,025.1,024.3,000.0,033.2,026.6,6.4,0000.0,0002.74,0006.06,0002.33
2023-11-29 21:30:00,SystemResetWarning,0821.8,5.00,000.00,025.2,024.3,000.0,033.3,026.6,7.3,0000.0,0002.68,0005.91,0002.28
2023-11-29 21:31:00,SystemResetWarning,0821.8,5.00,000.00,025.2,024.4,000.0,033.3,026.6,7.0,0000.0,0002.61,0005.75,0002.21
2023-11-29 21:32:00,SystemResetWarning,0821.7,4.99,000.00,025.2,024.4,000.0,033.3,026.6,6.1,0000.0,0002.56,0005.27,0002.13
2023-11-29 21:33:00,SystemResetWarning,0821.8,5.00,000.00,025.2,024.4,000.0,033.3,026.6,6.2,0000.0,0002.45,0003.78,0002.06
2023-11-29 21:34:00,SystemResetWarning,0821.7,5.00,000.00,025.2,024.4,000.0,033.3,026.6,5.9,0000.0,0002.32,0003.67,0001.96
2023-11-29 21:35:00,SystemResetWarning,0821.8,4.99,000.00,025.2,024.4,000.0,033.3,026.6,5.4,0000.0,0002.20,0003.63,0001.86
2023-11-29 21:36:00,SystemResetWarning,0821.7,5.00,000.00,025.3,024.4,000.0,033.4,026.6,5.0,0000.0,0002.16,0003.78,0001.81
2023-11-29 21:37:00,SystemResetWarning,0821.7,5.00,000.00,025.3,024.4,000.0,033.4,026.6,4.9,0000.0,0002.04,0003.68,0001.75
2023-11-29 21:38:00,SystemResetWarning,0821.7,5.00,000.00,025.3,024.4,000.0,033.4,026.6,4.5,0000.0,0001.94,0003.51,0001.67
2023-11-29 21:39:00,SystemResetWarning,0821.6,5.00,000.00,025.3,024.4,000.0,033.4,026.6,4.8,0000.0,0001.91,0003.65,0001.61
2023-11-29 21:40:00,SystemResetWarning,0821.6,4.99,000.00,025.3,024.4,000.0,033.4,026.6,5.0,0000.0,0001.82,0003.71,0001.54
2023-11-29 21:41:00,SystemResetWarning,0821.6,4.99,000.00,025.3,024.4,000.0,033.4,026.6,5.1,0000.0,0001.73,0003.62,0001.45
2023-11-29 21:42:00,SystemResetWarning,0821.8,4.99,000.00,025.3,024.4,000.0,033.4,026.6,5.0,0000.0,0001.65,0003.66,0001.36
2023-11-29 21:43:00,SystemResetWarning,0821.6,5.00,000.00,025.3,024.4,000.0,033.4,026.6,4.5,0000.0,0001.52,0003.36,0001.26
2023-11-29 21:44:00,SystemResetWarning,0821.6,5.00,000.00,025.3,024.4,000.0,033.4,026.6,4.5,0000.0,0001.41,0003.23,0001.15
2023-11-29 21:45:00,SystemResetWarning,0821.6,5.01,000.00,025.3,024.4,000.0,033.4,026.6,4.4,0000.0,0001.32,0003.09,0001.05
2023-11-29 21:46:00,SystemResetWarning,0821.6,5.01,000.00,025.3,024.4,000.0,033.4,026.6,4.5,0000.0,0001.21,0002.82,0000.96
2023-11-29 21:47:00,SystemResetWarning,0821.6,5.00,000.00,025.3,024.4,000.0,033.5,026.6,4.5,0000.0,0001.01,0002.29,0000.81
2023-11-29 21:48:00,SystemResetWarning,0821.6,4.99,000.00,025.3,024.4,000.0,033.5,026.6,4.9,0000.0,0000.87,0001.83,0000.68
2023-11-29 21:49:00,SystemResetWarning,0821.6,5.00,000.00,025.3,024.4,000.0,033.5,026.6,4.9,0000.0,0000.79,0001.75,0000.59
2023-11-29 21:50:00,SystemResetWarning,0821.5,5.00,000.00,025.3,024.4,000.0,033.5,026.7,4.7,0000.0,0000.68,0001.86,0000.49
2023-11-29 21:51:00,SystemResetWarning,0821.6,5.00,000.00,025.3,024.4,000.0,033.5,026.7,4.5,0000.0,0000.63,0002.27,0000.44
2023-11-29 21:52:00,SystemResetWarning,0821.7,5.01,000.00,025.3,024.4,000.0,033.5,026.7,4.8,0000.0,0000.60,0002.21,0000.41
2023-11-29 21:53:00,SystemResetWarning,0821.7,5.00,000.00,025.3,024.3,000.0,033.5,026.6,4.5,0000.0,0000.55,0002.01,0000.40
2023-11-29 21:54:00,SystemResetWarning,0822.0,5.00,000.00,025.3,024.3,000.0,033.5,026.6,4.5,0000.0,0000.55,0002.00,0000.40
2023-11-29 21:55:00,SystemResetWarning,0821.9,5.01,000.00,025.3,024.3,000.0,033.5,026.7,4.3,0000.0,0000.54,0001.91,0000.40
2023-11-29 21:56:00,SystemResetWarning,0821.8,5.01,000.00,025.3,024.3,000.0,033.5,026.6,4.6,0000.0,0000.51,0001.82,0000.39
2023-11-29 21:57:00,SystemResetWarning,0821.5,4.99,000.00,025.3,024.3,000.0,033.5,026.6,4.9,0000.0,0000.50,0001.80,0000.39
2023-11-29 21:58:00,SystemResetWarning,0821.6,4.99,000.00,025.3,024.3,000.0,033.5,026.6,5.0,0000.0,0000.50,0001.79,0000.39
2023-11-29 21:59:00,SystemResetWarning,0821.6,5.00,000.00,025.3,024.3,000.0,033.5,026.6,5.1,0000.0,0000.49,0001.76,0000.38
